Weather History for Garissa, Kenya

Change the Weather History Date:

Thursday, November 1, 2012

  Actual Average Record
Temperature  
Mean Temperature 86 °F -  
Max Temperature 96 °F 97 °F - ()
Min Temperature 76 °F 74 °F - ()
Cooling Degree Days 21    
Growing Degree Days 36 (Base 50)    
Moisture  
Dew Point 70 °F    
Average Humidity 62    
Maximum Humidity 83    
Minimum Humidity 34    
Precipitation  
Precipitation 0.00 in - - ()
Sea Level Pressure  
Sea Level Pressure 29.80 in    
Wind  
Wind Speed 5 mph ()    
Max Wind Speed 12 mph    
Max Gust Speed -    
Visibility 7.6 miles    
Events      
T = Trace of Precipitation, MM = Missing Value Source: Averaged Metar Reports

Daily Weather History Graph

Daily Weather History Graph

Search for Another Location

Airport:

Trip Planner

Search our weather history database for the weather conditions in past years. The results will help you decide how hot, cold, wet, or windy it might be!

Date:

Astronomy

Nov. 01, 2012 Rise Set
Actual Time 6:01 AM EAT 6:08 PM EAT
Civil Twilight 5:39 AM EAT 6:30 PM EAT
Nautical Twilight 5:14 AM EAT 6:55 PM EAT
Astronomical Twilight 4:50 AM EAT 7:20 PM EAT
Moon 8:15 PM EAT (11/1) 7:49 AM EAT (11/1)
Length of Visible Light 12h 50m
Length of Day
12h 07m
Waning Gibbous, 94% of the Moon is Illuminated
Nov 1
Waning Gibbous
Nov 7
Last Quarter
Nov 14
New
Nov 20
First Quarter
Nov 28
Full

Hourly Weather History & Observations

Time (EAT) Temp. Heat Index Dew Point Humidity Pressure Visibility Wind Dir Wind Speed Gust Speed Precip Events Conditions
1:00 AM 78.8 °F - 69.8 °F 74% 29.80 in 6.2 mi SSE 5.8 mph - N/A   Partly Cloudy
2:00 AM 78.8 °F - 69.8 °F 74% 29.80 in 6.2 mi SE 5.8 mph - N/A   Partly Cloudy
3:00 AM 78 °F - 71 °F 74% 29.78 in 19 mi South 6.9 mph - -   Partly Cloudy
4:00 AM 78.8 °F - 71.6 °F 78% 29.80 in 6.2 mi South 5.8 mph - N/A   Partly Cloudy
5:00 AM 77.0 °F - 71.6 °F 83% 29.80 in 6.2 mi SE 3.5 mph - N/A   Partly Cloudy
7:00 AM 77.0 °F - 71.6 °F 83% 29.83 in 6.2 mi SE 3.5 mph - N/A   Mostly Cloudy
8:00 AM 78.8 °F - 71.6 °F 78% 29.86 in 6.2 mi South 4.6 mph - N/A   Mostly Cloudy
9:00 AM 81 °F - 71 °F 65% 29.88 in 25 mi South 9.2 mph - -   Overcast
10:00 AM 82.4 °F 87.2 °F 71.6 °F 70% 29.89 in 6.2 mi South 4.6 mph - N/A   Mostly Cloudy
11:00 AM 86.0 °F 91.8 °F 71.6 °F 62% 29.86 in 6.2 mi South 6.9 mph - N/A   Mostly Cloudy
1:00 PM 91.4 °F 98.4 °F 71.6 °F 52% 29.80 in 6.2 mi South 6.9 mph - N/A   Mostly Cloudy
2:00 PM 93.2 °F 97.7 °F 68.0 °F 44% 29.77 in 6.2 mi South 4.6 mph - N/A   Mostly Cloudy
4:00 PM 95.0 °F 101.3 °F 69.8 °F 44% 29.71 in 6.2 mi East 6.9 mph - N/A   Scattered Clouds
5:00 PM 96.8 °F 99.0 °F 64.4 °F 34% 29.71 in 6.2 mi East 4.6 mph - N/A   Scattered Clouds
7:00 PM 93.2 °F 94.9 °F 64.4 °F 38% 29.71 in 6.2 mi East 6.9 mph - N/A   Partly Cloudy
8:00 PM 89.6 °F 93.4 °F 68.0 °F 49% 29.74 in 6.2 mi East 9.2 mph - N/A   Partly Cloudy
9:00 PM 87 °F - 68 °F 44% 29.80 in 19 mi East 6.9 mph - -   Partly Cloudy
10:00 PM 84.2 °F 88.4 °F 69.8 °F 62% 29.83 in 6.2 mi ESE 9.2 mph - N/A   Scattered Clouds
11:00 PM 82.4 °F 86.3 °F 69.8 °F 66% 29.83 in 6.2 mi East 11.5 mph - N/A   Partly Cloudy